Vancouver, WA

11:13 AM PDT on September 24, 2017 (GMT -0700)
Pearson

Weather History for KVUO - November, 2011

Change the Weather History Date:

Monday, November 21, 2011

  Actual Average Record
Temperature  
Mean Temperature 46 °F 45 °F  
Max Temperature 53 °F 52 °F 65 °F (1917)
Min Temperature 39 °F 39 °F 15 °F (1900)
Degree Days  
Heating Degree Days 19    
Month to date heating degree days 434  
Since 1 July heating degree days 779  
Cooling Degree Days 0    
Month to date cooling degree days 0  
Year to date cooling degree days 339  
Moisture  
Dew Point 42 °F    
Average Humidity 80    
Maximum Humidity 93    
Minimum Humidity 66    
Precipitation  
Precipitation 0.45 in 0.20 in 1.35 in (1974)
Month to date precipitation 2.67 3.93  
Year to date precipitation 30.62 30.39  
Snow  
Snow 0.00 in - - ()
Snow Depth 0.00 in    
Sea Level Pressure  
Sea Level Pressure 29.80 in    
Wind  
Wind Speed 9 mph (SE)    
Max Wind Speed 15 mph    
Max Gust Speed 24 mph    
Visibility 9 miles    
Events Rain    
T = Trace of Precipitation, MM = Missing Value Source: NWS Daily Summary

Daily Weather History Graph

Daily Weather History Graph

Search for Another Location

Airport or City:

Trip Planner

Search our weather history database for the weather conditions in past years. The results will help you decide how hot, cold, wet, or windy it might be!

Date:

Astronomy

Nov. 21, 2011 Rise Set
Actual Time 7:17 AM PST 4:34 PM PST
Civil Twilight 6:45 AM PST 5:07 PM PST
Nautical Twilight 6:08 AM PST 5:43 PM PST
Astronomical Twilight 5:33 AM PST 6:19 PM PST
Moon 2:52 AM PST (11/21) 2:08 PM PST (11/21)
Length of Visible Light 10h 22m
Length of Day
9h 16m
Waning Crescent, 16% of the Moon is Illuminated
Nov 21
Waning Crescent
Nov 24
New
Dec 2
First Quarter
Dec 10
Full
Dec 17
Last Quarter

Hourly Weather History & Observations

Time (PST) Temp. Windchill Dew Point Humidity Pressure Visibility Wind Dir Wind Speed Gust Speed Precip Events Conditions
12:53 AM 39.0 °F 36.8 °F 34.0 °F 82% 29.87 in 10.0 mi SSE 3.5 mph - N/A   Overcast
1:01 AM 39.2 °F - 35.6 °F 87% 29.86 in 10.0 mi Calm Calm - N/A   Overcast
1:53 AM 39.9 °F 34.5 °F 33.1 °F 77% 29.85 in 10.0 mi ESE 8.1 mph - N/A   Overcast
2:53 AM 41.0 °F 37.1 °F 34.0 °F 76% 29.83 in 10.0 mi Variable 5.8 mph - N/A   Overcast
3:53 AM 43.0 °F 37.2 °F 36.0 °F 76% 29.80 in 10.0 mi ESE 10.4 mph - 0.00 in   Overcast
4:53 AM 45.0 °F 39.7 °F 37.9 °F 76% 29.78 in 10.0 mi ESE 10.4 mph 16.1 mph 0.00 in Rain Light Rain
5:53 AM 45.0 °F 39.7 °F 39.0 °F 80% 29.75 in 10.0 mi ESE 10.4 mph - 0.02 in Rain Light Rain
6:53 AM 46.0 °F 40.6 °F 39.9 °F 79% 29.75 in 10.0 mi ESE 11.5 mph 18.4 mph 0.01 in Rain Light Rain
7:42 AM 44.6 °F - 41.0 °F 87% 29.81 in 7.0 mi Calm Calm - 0.03 in Rain Rain
7:53 AM 46.0 °F 43.9 °F 42.1 °F 86% 29.82 in 5.0 mi Variable 4.6 mph - 0.06 in Rain Rain
8:33 AM 48.2 °F - 42.8 °F 82% 29.82 in 9.0 mi South 8.1 mph 18.4 mph 0.04 in Rain Light Rain
8:53 AM 48.0 °F - 42.1 °F 80% 29.83 in 8.0 mi South 12.7 mph 19.6 mph 0.05 in Rain Light Rain
9:32 AM 48.2 °F - 42.8 °F 82% 29.84 in 10.0 mi South 5.8 mph 16.1 mph 0.00 in Rain Light Rain
9:53 AM 46.0 °F 43.1 °F 42.1 °F 86% 29.85 in 10.0 mi ESE 5.8 mph - 0.00 in   Overcast
10:08 AM 46.4 °F 42.9 °F 42.8 °F 87% 29.85 in 4.0 mi East 6.9 mph - 0.00 in Rain Light Rain
10:27 AM 48.2 °F - 44.6 °F 87% 29.85 in 10.0 mi SSE 8.1 mph - 0.01 in Rain Light Rain
10:53 AM 48.9 °F - 44.1 °F 83% 29.86 in 5.0 mi SSE 8.1 mph 17.3 mph 0.01 in Rain Light Rain
11:09 AM 48.2 °F - 44.6 °F 87% 29.86 in 10.0 mi SSE 8.1 mph - 0.01 in Rain Light Rain
11:53 AM 48.9 °F - 45.0 °F 86% 29.85 in 5.0 mi SSE 6.9 mph - 0.01 in Rain Light Rain
12:16 PM 48.2 °F - 44.6 °F 87% 29.84 in 10.0 mi SSE 10.4 mph 18.4 mph 0.00 in Rain Light Rain
12:53 PM 50.0 °F - 46.0 °F 86% 29.83 in 10.0 mi ESE 8.1 mph - 0.01 in   Overcast
1:10 PM 51.8 °F - 46.4 °F 82% 29.83 in 10.0 mi Variable 6.9 mph - N/A   Overcast
1:53 PM 53.1 °F - 46.9 °F 80% 29.81 in 10.0 mi SSE 11.5 mph 19.6 mph N/A   Overcast
2:53 PM 53.1 °F - 43.0 °F 69% 29.79 in 10.0 mi SSE 9.2 mph 24.2 mph 0.00 in   Overcast
3:53 PM 50.0 °F - 44.1 °F 80% 29.78 in 10.0 mi ESE 9.2 mph - 0.01 in   Overcast
4:53 PM 50.0 °F - 45.0 °F 83% 29.77 in 10.0 mi SE 8.1 mph - 0.04 in Rain Light Rain
5:53 PM 50.0 °F - 45.0 °F 83% 29.77 in 10.0 mi SE 8.1 mph - 0.03 in Rain Light Rain
6:43 PM 48.2 °F - 44.6 °F 87% 29.75 in 10.0 mi ESE 8.1 mph - 0.03 in Rain Light Rain
6:53 PM 48.0 °F - 44.1 °F 86% 29.75 in 10.0 mi ESE 6.9 mph - 0.03 in Rain Light Rain
7:23 PM 46.4 °F 42.4 °F 44.6 °F 93% 29.74 in 10.0 mi SE 8.1 mph - 0.02 in Rain Light Rain
7:53 PM 46.0 °F 41.4 °F 43.0 °F 89% 29.73 in 10.0 mi ESE 9.2 mph - 0.04 in Rain Light Rain
8:42 PM 46.4 °F 42.9 °F 42.8 °F 87% 29.71 in 10.0 mi SE 6.9 mph - 0.03 in Rain Light Rain
8:53 PM 45.0 °F 40.6 °F 43.0 °F 93% 29.71 in 10.0 mi ESE 8.1 mph - 0.03 in Rain Light Rain
9:53 PM 46.9 °F - 44.1 °F 90% 29.71 in 10.0 mi ESE 9.2 mph - 0.03 in Rain Light Rain
10:53 PM 46.9 °F - 45.0 °F 93% 29.70 in 10.0 mi East 9.2 mph - 0.04 in Rain Light Rain
11:53 PM 51.1 °F - 46.9 °F 86% 29.70 in 10.0 mi SSE 11.5 mph 19.6 mph 0.03 in Rain Light Rain